^^
Saratoga-Weather Station Historical Data
Daily Summary for July 14, 2021 Units:  Metric    English   Both
Daily Weekly Monthly Yearly Custom
  High: Low: Average:
Temperature: 6.1 °C 3.3 °C 4.9 °C
Dew Point: 5.7 °C 2.9 °C 4.4 °C
Humidity: 98% 94% 96%
Wind Speed: 6.4km/h 0km/h 1.3km/h
Wind Gust: 11.3km/h - -
Wind- - SSW
Pressure: 1030.8 hPa 1026.4 hPa -
Precipitation: 0.0 mm    
Historical Graphs
 
 
Tabular Data for July 14, 2021
Time Temperature Dew Point Pressure Wind Wind Speed Wind Gust Humidity Rainfall Rate (Hourly) solar
00:00 6.1 °C 5.5 °C 1027.4 hPa ESE 1.4 km/h 4.8 km/h 96% 0.0 mm 0 W/m2
00:05 6.1 °C 5.7 °C 1027.4 hPa ESE 1.4 km/h 3.2 km/h 97% 0.0 mm 0 W/m2
00:10 6 °C 5.6 °C 1027.4 hPa ESE 1.4 km/h 3.2 km/h 97% 0.0 mm 0 W/m2
00:15 6 °C 5.6 °C 1027.4 hPa ESE 3.2 km/h 3.2 km/h 97% 0.0 mm 0 W/m2
00:20 6 °C 5.6 °C 1027.4 hPa ESE 1.4 km/h 3.2 km/h 97% 0.0 mm 0 W/m2
00:25 6 °C 5.6 °C 1027.4 hPa ESE 1.4 km/h 3.2 km/h 97% 0.0 mm 0 W/m2
00:30 6 °C 5.6 °C 1027.4 hPa ESE 3.2 km/h 6.4 km/h 97% 0.0 mm 0 W/m2
00:35 5.9 °C 5.3 °C 1027.4 hPa ESE 1.4 km/h 6.4 km/h 96% 0.0 mm 0 W/m2
00:40 5.9 °C 5.5 °C 1027.4 hPa ESE 1.4 km/h 6.4 km/h 97% 0.0 mm 0 W/m2
00:45 5.9 °C 5.5 °C 1027.4 hPa East 4.7 km/h 4.8 km/h 97% 0.0 mm 0 W/m2
00:50 5.8 °C 5.4 °C 1027.4 hPa ESE 3.2 km/h 3.2 km/h 97% 0.0 mm 0 W/m2
00:55 5.8 °C 5.4 °C 1027.4 hPa ESE 4.7 km/h 6.4 km/h 97% 0.0 mm 0 W/m2
01:00 5.8 °C 5.4 °C 1027.4 hPa East 4.7 km/h 6.4 km/h 97% 0.0 mm 0 W/m2
01:05 5.7 °C 5.3 °C 1027.4 hPa ESE 1.4 km/h 9.7 km/h 97% 0.0 mm 0 W/m2
01:10 5.7 °C 5.3 °C 1027.4 hPa SSE 3.2 km/h 3.2 km/h 97% 0.0 mm 0 W/m2
01:15 5.7 °C 5.3 °C 1027.1 hPa ESE 3.2 km/h 4.8 km/h 97% 0.0 mm 0 W/m2
01:20 5.7 °C 5.3 °C 1027.1 hPa ENE 1.4 km/h 4.8 km/h 97% 0.0 mm 0 W/m2
01:25 5.7 °C 5.3 °C 1027.1 hPa ESE 3.2 km/h 3.2 km/h 97% 0.0 mm 0 W/m2
01:30 5.7 °C 5.3 °C 1027.1 hPa East 1.4 km/h 4.8 km/h 97% 0.0 mm 0 W/m2
01:35 5.7 °C 5.3 °C 1027.1 hPa ESE 1.4 km/h 3.2 km/h 97% 0.0 mm 0 W/m2
01:40 5.7 °C 5.3 °C 1027.4 hPa ESE 1.4 km/h 9.7 km/h 97% 0.0 mm 0 W/m2
01:45 5.6 °C 5.2 °C 1027.4 hPa Calm   6.4 km/h 97% 0.0 mm 0 W/m2
01:50 5.5 °C 5.1 °C 1027.4 hPa Calm   9.7 km/h 97% 0.0 mm 0 W/m2
01:55 5.5 °C 5.1 °C 1027.4 hPa Calm     97% 0.0 mm 0 W/m2
02:00 5.4 °C 5 °C 1027.4 hPa East 1.4 km/h 4.8 km/h 97% 0.0 mm 0 W/m2
02:05 5.4 °C 5 °C 1027.4 hPa ESE 3.2 km/h 4.8 km/h 97% 0.0 mm 0 W/m2
02:10 5.4 °C 5 °C 1027.4 hPa Calm   3.2 km/h 97% 0.0 mm 0 W/m2
02:15 5.4 °C 5 °C 1027.1 hPa ESE 3.2 km/h 4.8 km/h 97% 0.0 mm 0 W/m2
02:20 5.4 °C 5 °C 1027.1 hPa Calm     97% 0.0 mm 0 W/m2
02:25 5.4 °C 5 °C 1027.4 hPa Calm   3.2 km/h 97% 0.0 mm 0 W/m2
02:30 5.4 °C 5 °C 1027.4 hPa ESE 1.4 km/h 6.4 km/h 97% 0.0 mm 0 W/m2
02:35 5.4 °C 5 °C 1027.4 hPa ESE 3.2 km/h 6.4 km/h 97% 0.0 mm 0 W/m2
02:40 5.4 °C 5 °C 1027.1 hPa East 3.2 km/h 3.2 km/h 97% 0.0 mm 0 W/m2
02:46 5.4 °C 5 °C 1027.4 hPa Calm   3.2 km/h 97% 0.0 mm 0 W/m2
02:51 5.4 °C 5 °C 1027.4 hPa Calm   3.2 km/h 97% 0.0 mm 0 W/m2
02:56 5.4 °C 5 °C 1027.4 hPa East 1.4 km/h 3.2 km/h 97% 0.0 mm 0 W/m2
03:01 5.3 °C 4.9 °C 1027.4 hPa ESE 3.2 km/h 3.2 km/h 97% 0.0 mm 0 W/m2
03:06 5.3 °C 4.9 °C 1027.4 hPa Calm     97% 0.0 mm 0 W/m2
03:11 5.3 °C 4.9 °C 1027.8 hPa NE 1.4 km/h 1.6 km/h 97% 0.0 mm 0 W/m2
03:16 5.3 °C 4.9 °C 1027.8 hPa Calm   1.6 km/h 97% 0.0 mm 0 W/m2
03:21 5.3 °C 4.9 °C 1027.8 hPa Calm   1.6 km/h 97% 0.0 mm 0 W/m2
03:26 5.3 °C 4.9 °C 1028.1 hPa NE 1.4 km/h 3.2 km/h 97% 0.0 mm 0 W/m2
03:31 5.2 °C 4.8 °C 1027.8 hPa NE 1.4 km/h 3.2 km/h 97% 0.0 mm 0 W/m2
03:36 5.2 °C 4.8 °C 1027.8 hPa ESE 1.4 km/h 3.2 km/h 97% 0.0 mm 0 W/m2
03:41 5.1 °C 4.7 °C 1027.8 hPa ESE 1.4 km/h 4.8 km/h 97% 0.0 mm 0 W/m2
03:46 5 °C 4.6 °C 1027.8 hPa ESE 1.4 km/h 3.2 km/h 97% 0.0 mm 0 W/m2
04:03 4.9 °C 4.5 °C 1027.8 hPa Calm   3.2 km/h 97% 0.0 mm 0 W/m2
04:08 4.9 °C 4.5 °C 1027.8 hPa East 3.2 km/h 3.2 km/h 97% 0.0 mm 0 W/m2
04:13 4.9 °C 4.5 °C 1027.8 hPa Calm   3.2 km/h 97% 0.0 mm 0 W/m2
04:18 4.9 °C 4.5 °C 1027.4 hPa ESE 3.2 km/h 4.8 km/h 97% 0.0 mm 0 W/m2
04:23 4.9 °C 4.5 °C 1027.4 hPa SE 3.2 km/h 3.2 km/h 97% 0.0 mm 0 W/m2
04:28 4.9 °C 4.5 °C 1027.4 hPa SE 1.4 km/h 3.2 km/h 97% 0.0 mm 0 W/m2
04:33 4.8 °C 4.4 °C 1027.4 hPa SE 3.2 km/h 3.2 km/h 97% 0.0 mm 0 W/m2
04:38 4.8 °C 4.4 °C 1027.4 hPa Calm     97% 0.0 mm 0 W/m2
04:43 4.8 °C 4.4 °C 1027.4 hPa East 3.2 km/h 6.4 km/h 97% 0.0 mm 0 W/m2
04:48 4.8 °C 4.4 °C 1027.4 hPa Calm   3.2 km/h 97% 0.0 mm 0 W/m2
04:53 4.8 °C 4.4 °C 1027.4 hPa East 1.4 km/h 3.2 km/h 97% 0.0 mm 0 W/m2
04:58 4.8 °C 4.4 °C 1027.4 hPa ESE 1.4 km/h 4.8 km/h 97% 0.0 mm 0 W/m2
05:03 4.8 °C 4.4 °C 1027.4 hPa Calm   1.6 km/h 97% 0.0 mm 0 W/m2
05:08 4.7 °C 4.3 °C 1027.1 hPa ESE 1.4 km/h 3.2 km/h 97% 0.0 mm 0 W/m2
05:13 4.7 °C 4.3 °C 1027.1 hPa East 1.4 km/h 4.8 km/h 97% 0.0 mm 0 W/m2
05:18 4.7 °C 4.3 °C 1027.1 hPa Calm   4.8 km/h 97% 0.0 mm 0 W/m2
05:23 4.7 °C 4.3 °C 1027.1 hPa ESE 3.2 km/h 4.8 km/h 97% 0.0 mm 0 W/m2
05:28 4.7 °C 4.3 °C 1027.1 hPa East 3.2 km/h 4.8 km/h 97% 0.0 mm 0 W/m2
05:33 4.7 °C 4.3 °C 1027.1 hPa ESE 3.2 km/h 4.8 km/h 97% 0.0 mm 0 W/m2
05:38 4.6 °C 4.2 °C 1027.1 hPa ESE 1.4 km/h 4.8 km/h 97% 0.0 mm 0 W/m2
05:43 4.6 °C 4.2 °C 1027.1 hPa East 4.7 km/h 4.8 km/h 97% 0.0 mm 0 W/m2
05:48 4.6 °C 4.2 °C 1027.1 hPa East 3.2 km/h 4.8 km/h 97% 0.0 mm 0 W/m2
05:53 4.5 °C 4.1 °C 1026.8 hPa East 3.2 km/h 6.4 km/h 97% 0.0 mm 0 W/m2
06:11 4.4 °C 4 °C 1026.4 hPa East 3.2 km/h 9.7 km/h 97% 0.0 mm 0 W/m2
06:16 4.4 °C 4 °C 1026.8 hPa NNE 3.2 km/h 4.8 km/h 97% 0.0 mm 0 W/m2
06:21 4.4 °C 4 °C 1026.8 hPa Calm   9.7 km/h 97% 0.0 mm 0 W/m2
06:26 4.4 °C 4 °C 1027.1 hPa Calm     97% 0.0 mm 0 W/m2
06:31 4.4 °C 4 °C 1027.1 hPa Calm     97% 0.0 mm 0 W/m2
06:36 4.4 °C 4 °C 1026.8 hPa West 1.4 km/h 3.2 km/h 97% 0.0 mm 0 W/m2
06:41 4.3 °C 3.9 °C 1026.8 hPa South 1.4 km/h 4.8 km/h 97% 0.0 mm 0 W/m2
06:46 4.4 °C 4 °C 1026.8 hPa East 1.4 km/h 4.8 km/h 97% 0.0 mm 0 W/m2
06:51 4.3 °C 3.9 °C 1026.8 hPa East 1.4 km/h 6.4 km/h 97% 0.0 mm 0 W/m2
06:56 4.4 °C 4 °C 1027.1 hPa Calm     97% 0.0 mm 0 W/m2
07:01 4.3 °C 3.9 °C 1027.1 hPa ESE 3.2 km/h 6.4 km/h 97% 0.0 mm 0 W/m2
07:06 4.3 °C 3.9 °C 1027.4 hPa ESE 1.4 km/h 4.8 km/h 97% 0.0 mm 0 W/m2
07:11 4.2 °C 3.8 °C 1027.1 hPa Calm   3.2 km/h 97% 0.0 mm 0 W/m2
07:16 4.2 °C 3.8 °C 1027.1 hPa Calm     97% 0.0 mm 0 W/m2
07:21 4.2 °C 3.8 °C 1027.1 hPa Calm   3.2 km/h 97% 0.0 mm 0 W/m2
07:26 4.1 °C 3.7 °C 1027.1 hPa Calm     97% 0.0 mm 0 W/m2
07:31 4.1 °C 3.7 °C 1027.1 hPa Calm   1.6 km/h 97% 0.0 mm 0 W/m2
07:36 4 °C 3.6 °C 1027.4 hPa West 1.4 km/h 6.4 km/h 97% 0.0 mm 0 W/m2
07:41 3.9 °C 3.5 °C 1027.4 hPa SW 3.2 km/h 3.2 km/h 97% 0.0 mm 0 W/m2
07:46 3.8 °C 3.4 °C 1027.4 hPa Calm   6.4 km/h 97% 0.0 mm 0 W/m2
07:51 3.8 °C 3.4 °C 1027.4 hPa SE 3.2 km/h 3.2 km/h 97% 0.0 mm 0 W/m2
07:56 3.8 °C 3.4 °C 1027.4 hPa SE 1.4 km/h 1.6 km/h 97% 0.0 mm 0 W/m2
08:01 3.8 °C 3.4 °C 1027.4 hPa Calm   1.6 km/h 97% 0.0 mm 0 W/m2
08:06 3.8 °C 3.4 °C 1027.4 hPa WSW 1.4 km/h 3.2 km/h 97% 0.0 mm 0 W/m2
08:12 3.8 °C 3.4 °C 1027.8 hPa WNW 3.2 km/h 4.8 km/h 97% 0.0 mm 0 W/m2
08:17 3.7 °C 3.3 °C 1027.8 hPa WNW 3.2 km/h 4.8 km/h 97% 0.0 mm 0 W/m2
08:22 3.7 °C 3.3 °C 1027.8 hPa West 1.4 km/h 4.8 km/h 97% 0.0 mm 0 W/m2
08:27 3.7 °C 3.3 °C 1027.8 hPa WSW 4.7 km/h 6.4 km/h 97% 0.0 mm 0 W/m2
08:32 3.7 °C 3.3 °C 1027.8 hPa WSW 1.4 km/h 3.2 km/h 97% 0.0 mm 0 W/m2
08:37 3.7 °C 3.3 °C 1027.8 hPa WSW 1.4 km/h 3.2 km/h 97% 0.0 mm 0 W/m2
08:42 3.7 °C 3.3 °C 1027.8 hPa WSW 3.2 km/h 3.2 km/h 97% 0.0 mm 5 W/m2
08:47 3.7 °C 3.3 °C 1027.8 hPa WNW 4.7 km/h 9.7 km/h 97% 0.0 mm 9 W/m2
08:52 3.7 °C 3.3 °C 1027.8 hPa West 1.4 km/h 4.8 km/h 97% 0.0 mm 11 W/m2
08:57 3.6 °C 3.2 °C 1027.8 hPa West 3.2 km/h 6.4 km/h 97% 0.0 mm 11 W/m2
09:02 3.6 °C 3.2 °C 1027.8 hPa WNW 1.4 km/h 6.4 km/h 97% 0.0 mm 14 W/m2
09:07 3.6 °C 3.2 °C 1028.1 hPa WNW 1.4 km/h 1.6 km/h 97% 0.0 mm 14 W/m2
09:12 3.7 °C 3.4 °C 1028.1 hPa WNW 1.4 km/h 6.4 km/h 98% 0.0 mm 14 W/m2
09:17 3.7 °C 3.4 °C 1028.1 hPa WNW 3.2 km/h 4.8 km/h 98% 0.0 mm 16 W/m2
09:22 3.7 °C 3.4 °C 1028.1 hPa West 4.7 km/h 6.4 km/h 98% 0.0 mm 18 W/m2
09:27 3.7 °C 3.4 °C 1028.5 hPa NW 6.4 km/h 6.4 km/h 98% 0.0 mm 19 W/m2
09:32 3.6 °C 3.2 °C 1028.5 hPa West 3.2 km/h 4.8 km/h 97% 0.0 mm 25 W/m2
09:37 3.6 °C 3.2 °C 1028.5 hPa WNW 4.7 km/h 9.7 km/h 97% 0.0 mm 26 W/m2
09:42 3.5 °C 3.1 °C 1028.5 hPa WNW 1.4 km/h 4.8 km/h 97% 0.0 mm 25 W/m2
09:47 3.4 °C 3 °C 1028.5 hPa Calm   8 km/h 97% 0.0 mm 26 W/m2
09:52 3.4 °C 3 °C 1028.5 hPa NW 6.4 km/h 6.4 km/h 97% 0.0 mm 25 W/m2
09:57 3.4 °C 3 °C 1028.5 hPa WNW 3.2 km/h 11.3 km/h 97% 0.0 mm 42 W/m2
10:02 3.3 °C 2.9 °C 1028.5 hPa West 3.2 km/h 4.8 km/h 97% 0.0 mm 49 W/m2
10:07 3.3 °C 2.9 °C 1028.5 hPa Calm   6.4 km/h 97% 0.0 mm 58 W/m2
10:12 3.3 °C 2.9 °C 1028.5 hPa WNW 6.4 km/h 8 km/h 97% 0.0 mm 56 W/m2
10:17 3.3 °C 2.9 °C 1028.5 hPa West 3.2 km/h 4.8 km/h 97% 0.0 mm 47 W/m2
10:22 3.3 °C 2.9 °C 1028.5 hPa WNW 3.2 km/h 9.7 km/h 97% 0.0 mm 46 W/m2
10:28 3.3 °C 2.9 °C 1028.5 hPa WNW 1.4 km/h 4.8 km/h 97% 0.0 mm 54 W/m2
10:33 3.3 °C 2.9 °C 1028.5 hPa WSW 1.4 km/h 4.8 km/h 97% 0.0 mm 54 W/m2
10:38 3.3 °C 2.9 °C 1028.5 hPa Calm   1.6 km/h 97% 0.0 mm 47 W/m2
10:43 3.3 °C 2.9 °C 1028.5 hPa WNW 3.2 km/h 3.2 km/h 97% 0.0 mm 46 W/m2
10:48 3.3 °C 2.9 °C 1028.5 hPa West 1.4 km/h 6.4 km/h 97% 0.0 mm 42 W/m2
10:53 3.3 °C 2.9 °C 1028.8 hPa Calm   3.2 km/h 97% 0.0 mm 46 W/m2
10:58 3.3 °C 2.9 °C 1028.8 hPa WNW 3.2 km/h 6.4 km/h 97% 0.0 mm 53 W/m2
11:03 3.3 °C 2.9 °C 1028.8 hPa West 4.7 km/h 4.8 km/h 97% 0.0 mm 40 W/m2
11:08 3.3 °C 2.9 °C 1029.1 hPa WSW 4.7 km/h 6.4 km/h 97% 0.0 mm 39 W/m2
11:13 3.4 °C 3 °C 1028.8 hPa West 3.2 km/h 4.8 km/h 97% 0.0 mm 35 W/m2
11:18 3.4 °C 3 °C 1029.1 hPa West 3.2 km/h 6.4 km/h 97% 0.0 mm 39 W/m2
11:23 3.4 °C 3 °C 1029.1 hPa West 3.2 km/h 6.4 km/h 97% 0.0 mm 39 W/m2
11:28 3.5 °C 3.1 °C 1028.8 hPa West 4.7 km/h 6.4 km/h 97% 0.0 mm 37 W/m2
11:33 3.6 °C 3.2 °C 1028.8 hPa West 4.7 km/h 6.4 km/h 97% 0.0 mm 44 W/m2
11:38 3.6 °C 3.2 °C 1028.8 hPa West 6.4 km/h 9.7 km/h 97% 0.0 mm 47 W/m2
11:43 3.6 °C 3.2 °C 1028.8 hPa West 4.7 km/h 6.4 km/h 97% 0.0 mm 54 W/m2
11:48 3.7 °C 3.3 °C 1028.8 hPa WSW 6.4 km/h 6.4 km/h 97% 0.0 mm 49 W/m2
11:53 3.7 °C 3.3 °C 1028.8 hPa West 3.2 km/h 6.4 km/h 97% 0.0 mm 47 W/m2
11:58 3.8 °C 3.4 °C 1028.8 hPa WNW 1.4 km/h 4.8 km/h 97% 0.0 mm 46 W/m2
12:03 3.8 °C 3.4 °C 1028.5 hPa West 3.2 km/h 4.8 km/h 97% 0.0 mm 49 W/m2
12:08 3.9 °C 3.5 °C 1028.5 hPa WSW 1.4 km/h 4.8 km/h 97% 0.0 mm 53 W/m2
12:27 4.2 °C 3.8 °C 1028.5 hPa West 3.2 km/h 4.8 km/h 97% 0.0 mm 54 W/m2
12:32 4.2 °C 3.8 °C 1028.5 hPa WNW 3.2 km/h 4.8 km/h 97% 0.0 mm 56 W/m2
12:37 4.3 °C 3.9 °C 1028.5 hPa WNW 3.2 km/h 4.8 km/h 97% 0.0 mm 49 W/m2
12:42 4.4 °C 4 °C 1028.5 hPa West 6.4 km/h 8 km/h 97% 0.0 mm 53 W/m2
12:47 4.4 °C 4 °C 1028.5 hPa West 3.2 km/h 4.8 km/h 97% 0.0 mm 47 W/m2
12:52 4.5 °C 4.1 °C 1028.5 hPa West 4.7 km/h 6.4 km/h 97% 0.0 mm 42 W/m2
12:57 4.6 °C 4.2 °C 1028.5 hPa WSW 3.2 km/h 11.3 km/h 97% 0.0 mm 44 W/m2
13:03 4.6 °C 4.2 °C 1028.5 hPa West 3.2 km/h 3.2 km/h 97% 0.0 mm 54 W/m2
13:08 4.7 °C 4.3 °C 1028.5 hPa West 1.4 km/h 8 km/h 97% 0.0 mm 93 W/m2
13:13 4.7 °C 4.3 °C 1028.5 hPa West 3.2 km/h 6.4 km/h 97% 0.0 mm 69 W/m2
13:18 4.8 °C 4.4 °C 1028.5 hPa WNW 3.2 km/h 4.8 km/h 97% 0.0 mm 65 W/m2
13:23 4.8 °C 4.4 °C 1028.5 hPa WNW 1.4 km/h 3.2 km/h 97% 0.0 mm 69 W/m2
13:28 4.9 °C 4.5 °C 1028.5 hPa Calm   4.8 km/h 97% 0.0 mm 62 W/m2
13:33 5 °C 4.6 °C 1028.5 hPa Calm     97% 0.0 mm 56 W/m2
13:50 5.2 °C 4.6 °C 1028.5 hPa Calm   1.6 km/h 96% 0.0 mm 56 W/m2
13:55 5.2 °C 4.6 °C 1028.5 hPa Calm     96% 0.0 mm 53 W/m2
14:00 5.3 °C 4.7 °C 1028.5 hPa Calm   1.6 km/h 96% 0.0 mm 49 W/m2
14:05 5.4 °C 4.8 °C 1028.5 hPa Calm     96% 0.0 mm 42 W/m2
14:10 5.4 °C 4.8 °C 1028.5 hPa Calm     96% 0.0 mm 40 W/m2
14:15 5.5 °C 4.9 °C 1028.5 hPa Calm     96% 0.0 mm 42 W/m2
14:20 5.6 °C 5 °C 1028.1 hPa Calm     96% 0.0 mm 42 W/m2
14:25 5.6 °C 5 °C 1028.1 hPa Calm     96% 0.0 mm 46 W/m2
14:45 5.7 °C 5 °C 1028.1 hPa Calm     95% 0.0 mm 47 W/m2
14:50 5.8 °C 5.1 °C 1028.1 hPa Calm     95% 0.0 mm 47 W/m2
14:55 5.8 °C 5.1 °C 1028.1 hPa Calm     95% 0.0 mm 42 W/m2
15:00 5.9 °C 5.2 °C 1028.5 hPa Calm     95% 0.0 mm 32 W/m2
15:05 5.9 °C 5.2 °C 1028.5 hPa Calm     95% 0.0 mm 32 W/m2
15:10 5.9 °C 5.2 °C 1028.5 hPa Calm   1.6 km/h 95% 0.0 mm 30 W/m2
15:16 5.9 °C 5.2 °C 1028.5 hPa Calm     95% 0.0 mm 21 W/m2
15:21 5.9 °C 5.2 °C 1028.5 hPa Calm     95% 0.0 mm 21 W/m2
15:26 6 °C 5.3 °C 1028.5 hPa Calm     95% 0.0 mm 18 W/m2
15:31 6 °C 5.1 °C 1028.5 hPa Calm     94% 0.0 mm 14 W/m2
15:36 6 °C 5.1 °C 1028.5 hPa Calm     94% 0.0 mm 12 W/m2
15:41 6 °C 5.1 °C 1028.5 hPa Calm     94% 0.0 mm 11 W/m2
15:46 6 °C 5.1 °C 1028.5 hPa Calm     94% 0.0 mm 9 W/m2
15:51 6 °C 5.1 °C 1028.5 hPa Calm     94% 0.0 mm 7 W/m2
15:56 6 °C 5.1 °C 1028.5 hPa Calm     94% 0.0 mm 7 W/m2
16:01 5.9 °C 5 °C 1028.5 hPa Calm     94% 0.0 mm 5 W/m2
16:06 5.9 °C 5 °C 1028.8 hPa Calm     94% 0.0 mm 5 W/m2
16:11 5.9 °C 5.2 °C 1028.8 hPa Calm     95% 0.0 mm 5 W/m2
16:16 5.9 °C 5.2 °C 1028.8 hPa Calm     95% 0.0 mm 0 W/m2
16:21 6 °C 5.3 °C 1028.8 hPa Calm     95% 0.0 mm 0 W/m2
16:26 5.9 °C 5.2 °C 1029.1 hPa Calm     95% 0.0 mm 0 W/m2
16:31 5.9 °C 5.2 °C 1028.8 hPa Calm     95% 0.0 mm 0 W/m2
16:36 5.9 °C 5.2 °C 1028.8 hPa NW 1.4 km/h 1.6 km/h 95% 0.0 mm 0 W/m2
16:41 5.8 °C 5.1 °C 1028.8 hPa Calm   4.8 km/h 95% 0.0 mm 0 W/m2
16:46 5.8 °C 4.9 °C 1028.8 hPa Calm   4.8 km/h 94% 0.0 mm 0 W/m2
16:51 5.7 °C 5 °C 1028.8 hPa Calm   3.2 km/h 95% 0.0 mm 0 W/m2
16:56 5.7 °C 5 °C 1029.1 hPa Calm   1.6 km/h 95% 0.0 mm 0 W/m2
17:01 5.7 °C 5 °C 1029.1 hPa Calm   3.2 km/h 95% 0.0 mm 0 W/m2
17:06 5.6 °C 4.9 °C 1029.1 hPa Calm   3.2 km/h 95% 0.0 mm 0 W/m2
17:11 5.6 °C 4.9 °C 1029.1 hPa Calm   1.6 km/h 95% 0.0 mm 0 W/m2
17:16 5.6 °C 4.9 °C 1029.1 hPa Calm     95% 0.0 mm 0 W/m2
17:21 5.6 °C 4.9 °C 1029.1 hPa WNW 1.4 km/h 3.2 km/h 95% 0.0 mm 0 W/m2
17:26 5.6 °C 4.9 °C 1029.1 hPa Calm     95% 0.0 mm 0 W/m2
17:31 5.5 °C 4.8 °C 1029.5 hPa WNW 1.4 km/h 1.6 km/h 95% 0.0 mm 0 W/m2
17:36 5.5 °C 4.8 °C 1029.5 hPa Calm   1.6 km/h 95% 0.0 mm 0 W/m2
17:41 5.4 °C 4.7 °C 1029.5 hPa Calm     95% 0.0 mm 0 W/m2
17:46 5.4 °C 4.7 °C 1029.5 hPa Calm   3.2 km/h 95% 0.0 mm 0 W/m2
17:51 5.4 °C 4.7 °C 1029.5 hPa Calm     95% 0.0 mm 0 W/m2
17:56 5.4 °C 4.7 °C 1029.5 hPa Calm   3.2 km/h 95% 0.0 mm 0 W/m2
18:01 5.4 °C 4.7 °C 1029.5 hPa Calm     95% 0.0 mm 0 W/m2
18:06 5.4 °C 4.7 °C 1029.5 hPa Calm   3.2 km/h 95% 0.0 mm 0 W/m2
18:11 5.3 °C 4.6 °C 1029.5 hPa Calm   1.6 km/h 95% 0.0 mm 0 W/m2
18:16 5.3 °C 4.6 °C 1029.5 hPa Calm     95% 0.0 mm 0 W/m2
18:21 5.3 °C 4.6 °C 1029.8 hPa Calm     95% 0.0 mm 0 W/m2
18:26 5.3 °C 4.6 °C 1029.8 hPa Calm     95% 0.0 mm 0 W/m2
18:31 5.3 °C 4.6 °C 1029.8 hPa WNW 3.2 km/h 3.2 km/h 95% 0.0 mm 0 W/m2
18:36 5.3 °C 4.6 °C 1029.8 hPa Calm   3.2 km/h 95% 0.0 mm 0 W/m2
18:41 5.3 °C 4.6 °C 1029.8 hPa Calm     95% 0.0 mm 0 W/m2
18:46 5.3 °C 4.6 °C 1029.8 hPa Calm   3.2 km/h 95% 0.0 mm 0 W/m2
18:51 5.3 °C 4.6 °C 1029.8 hPa WNW 1.4 km/h 3.2 km/h 95% 0.0 mm 0 W/m2
18:56 5.3 °C 4.6 °C 1029.8 hPa Calm     95% 0.0 mm 0 W/m2
19:01 5.3 °C 4.6 °C 1029.8 hPa Calm     95% 0.0 mm 0 W/m2
19:20 5.3 °C 4.6 °C 1029.8 hPa Calm     95% 0.0 mm 0 W/m2
19:25 5.3 °C 4.6 °C 1029.8 hPa Calm     95% 0.0 mm 0 W/m2
19:30 5.3 °C 4.6 °C 1030.1 hPa Calm     95% 0.0 mm 0 W/m2
19:35 5.2 °C 4.5 °C 1030.1 hPa Calm     95% 0.0 mm 0 W/m2
19:40 5.2 °C 4.5 °C 1030.1 hPa Calm     95% 0.0 mm 0 W/m2
19:45 5.2 °C 4.5 °C 1030.1 hPa Calm     95% 0.0 mm 0 W/m2
19:50 5.2 °C 4.5 °C 1030.1 hPa Calm     95% 0.0 mm 0 W/m2
19:55 5.2 °C 4.5 °C 1030.1 hPa Calm     95% 0.0 mm 0 W/m2
20:00 5.2 °C 4.6 °C 1030.1 hPa Calm     96% 0.0 mm 0 W/m2
20:05 5.2 °C 4.5 °C 1030.1 hPa Calm     95% 0.0 mm 0 W/m2
20:10 5.2 °C 4.5 °C 1030.1 hPa Calm     95% 0.0 mm 0 W/m2
20:15 5.2 °C 4.6 °C 1030.1 hPa Calm     96% 0.0 mm 0 W/m2
20:20 5.2 °C 4.6 °C 1030.1 hPa Calm     96% 0.0 mm 0 W/m2
20:25 5.2 °C 4.6 °C 1030.1 hPa Calm   3.2 km/h 96% 0.0 mm 0 W/m2
20:30 5.2 °C 4.6 °C 1030.1 hPa Calm     96% 0.0 mm 0 W/m2
20:35 5.3 °C 4.7 °C 1030.1 hPa Calm     96% 0.0 mm 0 W/m2
20:40 5.3 °C 4.6 °C 1030.1 hPa Calm     95% 0.0 mm 0 W/m2
20:45 5.3 °C 4.6 °C 1030.5 hPa Calm     95% 0.0 mm 0 W/m2
20:50 5.3 °C 4.6 °C 1030.1 hPa Calm   1.6 km/h 95% 0.0 mm 0 W/m2
20:55 5.3 °C 4.6 °C 1030.1 hPa Calm     95% 0.0 mm 0 W/m2
21:00 5.3 °C 4.6 °C 1030.1 hPa Calm     95% 0.0 mm 0 W/m2
21:05 5.3 °C 4.6 °C 1030.1 hPa Calm     95% 0.0 mm 0 W/m2
21:10 5.3 °C 4.6 °C 1030.5 hPa Calm     95% 0.0 mm 0 W/m2
21:15 5.3 °C 4.6 °C 1030.1 hPa Calm     95% 0.0 mm 0 W/m2
21:20 5.3 °C 4.6 °C 1030.1 hPa Calm     95% 0.0 mm 0 W/m2
21:25 5.3 °C 4.6 °C 1030.1 hPa Calm     95% 0.0 mm 0 W/m2
21:30 5.3 °C 4.6 °C 1030.5 hPa Calm     95% 0.0 mm 0 W/m2
21:35 5.3 °C 4.7 °C 1030.5 hPa Calm     96% 0.0 mm 0 W/m2
21:40 5.3 °C 4.7 °C 1030.5 hPa Calm     96% 0.0 mm 0 W/m2
21:45 5.3 °C 4.6 °C 1030.5 hPa Calm     95% 0.0 mm 0 W/m2
21:50 5.3 °C 4.7 °C 1030.5 hPa Calm     96% 0.0 mm 0 W/m2
21:55 5.3 °C 4.6 °C 1030.5 hPa Calm     95% 0.0 mm 0 W/m2
22:00 5.3 °C 4.7 °C 1030.5 hPa WNW 1.4 km/h 1.6 km/h 96% 0.0 mm 0 W/m2
22:05 5.3 °C 4.7 °C 1030.5 hPa Calm   3.2 km/h 96% 0.0 mm 0 W/m2
22:10 5.3 °C 4.7 °C 1030.5 hPa Calm     96% 0.0 mm 0 W/m2
22:15 5.3 °C 4.7 °C 1030.5 hPa Calm   1.6 km/h 96% 0.0 mm 0 W/m2
22:20 5.3 °C 4.7 °C 1030.5 hPa Calm     96% 0.0 mm 0 W/m2
22:25 5.3 °C 4.7 °C 1030.5 hPa Calm     96% 0.0 mm 0 W/m2
22:30 5.3 °C 4.7 °C 1030.5 hPa Calm     96% 0.0 mm 0 W/m2
22:35 5.3 °C 4.7 °C 1030.5 hPa WNW 1.4 km/h 1.6 km/h 96% 0.0 mm 0 W/m2
22:40 5.3 °C 4.7 °C 1030.5 hPa Calm     96% 0.0 mm 0 W/m2
22:45 5.3 °C 4.7 °C 1030.5 hPa Calm     96% 0.0 mm 0 W/m2
22:50 5.3 °C 4.7 °C 1030.5 hPa Calm     96% 0.0 mm 0 W/m2
22:55 5.3 °C 4.7 °C 1030.5 hPa Calm     96% 0.0 mm 0 W/m2
23:00 5.3 °C 4.7 °C 1030.5 hPa Calm     96% 0.0 mm 0 W/m2
23:05 5.3 °C 4.7 °C 1030.5 hPa Calm     96% 0.0 mm 0 W/m2
23:11 5.3 °C 4.7 °C 1030.5 hPa Calm     96% 0.0 mm 0 W/m2
23:16 5.3 °C 4.7 °C 1030.5 hPa Calm     96% 0.0 mm 0 W/m2
23:21 5.3 °C 4.7 °C 1030.5 hPa Calm     96% 0.0 mm 0 W/m2
23:26 5.2 °C 4.6 °C 1030.8 hPa Calm     96% 0.0 mm 0 W/m2
23:31 5.2 °C 4.6 °C 1030.8 hPa Calm     96% 0.0 mm 0 W/m2
23:36 5.2 °C 4.6 °C 1030.8 hPa Calm     96% 0.0 mm 0 W/m2
23:41 5.2 °C 4.6 °C 1030.8 hPa Calm     96% 0.0 mm 0 W/m2
23:46 5.2 °C 4.6 °C 1030.8 hPa Calm     96% 0.0 mm 0 W/m2
23:51 5.2 °C 4.6 °C 1030.8 hPa Calm     96% 0.0 mm 0 W/m2
23:56 5.3 °C 4.7 °C 1030.8 hPa Calm     96% 0.0 mm 0 W/m2
Juneau County Weather
Compliments of Weather Underground - 4 mb